Theta_e
326 327 327 327 327 328 328 328 328 328 328 328 328 328 328 329 330 330 330 329 329 329 329 329 329 328 328 328 329 327 326 326 326 326 326 325 324 324 323 323 323 322
323 324 325 326 326 327 327 327 328 328 328 328 328 328 329 330 330 330 329 329 329 328 329 329 329 328 328 327 328 326 325 325 325 326 325 325 324 324 323 323 323 323
319 320 322 323 323 324 325 327 327 327 327 328 329 329 329 329 330 330 329 329 328 328 328 328 328 328 328 328 327 327 325 325 324 326 324 324 324 324 324 324 323 323
317 318 318 319 321 322 323 324 326 326 327 327 327 328 329 330 330 329 329 325 328 328 328 328 327 328 328 327 327 326 326 325 325 326 325 324 324 324 324 324 323 322
316 316 317 318 318 320 321 322 323 324 325 326 327 328 327 328 328 328 328 328 327 327 327 327 327 327 327 327 326 325 325 324 325 325 324 323 324 323 323 323 322 322
315 315 316 316 317 318 318 319 321 322 323 324 325 327 327 327 327 327 327 327 327 327 326 327 326 326 326 326 326 325 325 324 324 324 323 323 323 324 323 322 321 321
314 314 315 315 316 317 317 318 319 320 322 323 324 325 326 326 326 327 327 327 327 326 326 326 326 325 326 325 325 324 324 324 324 323 323 322 322 322 323 322 321 320
312 313 314 315 315 315 316 317 318 319 321 322 322 323 325 325 326 326 327 327 326 326 326 325 325 325 325 325 324 324 324 324 323 323 322 322 322 321 322 322 321 320
311 312 313 313 313 314 315 315 317 318 319 319 321 322 323 324 325 326 326 326 326 326 326 325 325 325 325 325 324 323 323 323 323 322 322 321 321 320 320 321 320 319
309 310 311 311 312 313 314 315 316 316 317 318 319 320 321 323 325 325 325 325 325 325 325 325 325 325 324 324 324 324 323 323 323 322 322 322 322 321 320 320 319 319
306 307 308 309 310 311 312 314 314 315 316 316 318 318 320 321 323 325 324 324 324 325 325 324 325 325 324 324 324 324 323 323 323 322 322 322 322 322 314 320 319 319
305 306 306 306 307 308 309 311 312 313 313 315 315 316 317 319 321 322 323 323 324 324 325 325 325 325 324 324 324 324 323 323 323 322 322 322 322 322 321 321 320 319
303 304 305 305 305 306 307 308 308 308 309 310 312 314 315 316 318 320 321 322 322 323 324 324 324 324 324 324 324 323 323 322 322 321 321 321 322 321 321 321 320 320
303 304 303 302 302 303 303 303 304 305 306 307 308 309 311 313 315 317 319 320 321 322 323 324 324 324 324 324 323 323 322 322 321 321 320 320 321 321 321 320 320 320
303 301 300 300 299 300 300 301 302 303 303 303 304 305 308 309 312 314 315 317 318 319 320 321 321 321 322 322 322 322 322 321 321 321 320 319 319 319 320 319 318 319
300 298 298 297 297 298 299 299 299 299 299 300 301 303 304 305 307 309 311 313 315 316 317 317 318 319 311 304 306 319 321 321 321 320 320 319 317 317 317 317 316 317
298 298 297 295 296 296 295 295 296 296 296 297 298 298 298 299 300 302 304 306 308 310 312 313 314 314 303 302 301 301 312 319 319 319 319 318 316 315 315 314 315 315
297 296 295 296 296 296 297 296 295 295 296 296 297 298 299 299 298 299 301 303 305 306 306 307 309 301 300 300 300 300 299 310 316 317 317 317 315 314 314 314 314 315
294 293 294 295 296 296 295 294 294 295 296 297 297 298 298 298 299 300 301 302 303 303 304 305 306 300 299 299 298 298 299 300 309 313 314 313 313 313 313 313 312 312
293 293 293 294 294 294 294 293 294 295 296 296 296 296 297 298 298 298 300 301 302 302 304 305 305 292 293 294 295 295 296 297 305 308 310 310 311 311 312 312 312 311
293 293 293 294 294 294 293 293 293 293 294 295 296 296 297 297 297 298 299 299 299 299 300 301 294 291 292 292 293 294 295 295 302 305 306 307 309 309 309 310 311 311
291 291 292 293 293 293 293 292 292 292 292 294 293 294 295 295 296 295 295 295 295 297 298 296 292 290 291 291 292 294 294 299 300 301 302 302 303 304 304 302 299 299
291 291 291 292 292 292 293 292 290 291 291 291 292 294 293 294 294 292 293 294 294 294 296 294 291 288 289 290 291 292 295 298 297 298 298 299 299 297 296 295 295 295
290 290 290 290 291 291 289 289 288 289 290 290 291 293 294 293 293 292 291 290 289 289 289 292 290 287 288 290 291 291 291 297 297 297 296 295 296 295 295 295 292 286
290 290 290 290 290 290 288 287 287 287 287 288 289 290 290 290 290 291 290 289 288 288 285 288 289 287 288 289 290 290 292 295 295 296 295 294 294 294 294 293 293 290
289 289 289 289 289 289 288 287 286 287 287 287 287 288 288 289 290 290 290 290 290 290 290 290 291 291 289 289 289 290 290 292 294 295 296 293 292 290 291 292 292 292
Wind_Speed
12 11 12 12 13 12 13 13 13 13 13 12 12 12 11 11 11 12 13 13 14 14 14 14 14 14 13 14 14 14 16 17 16 16 17 17 17 17 18 19 19 18
13 12 11 11 11 11 13 13 14 13 13 12 12 12 11 10 11 11 12 13 13 14 14 14 14 14 14 13 14 16 14 15 18 15 16 19 17 17 20 21 20 18
10 11 12 13 13 15 15 14 13 13 13 13 13 12 12 11 11 10 11 12 12 13 14 14 14 15 15 14 14 14 13 15 18 17 17 18 17 17 18 18 17 19
10 11 11 13 14 15 14 13 13 13 13 13 14 13 11 10 9 11 10 11 12 12 12 13 14 14 14 14 14 13 15 17 18 16 17 16 15 16 18 16 17 16
8 9 10 11 12 13 13 14 15 15 15 14 13 13 12 12 10 12 12 11 12 13 12 13 13 14 13 13 15 15 14 17 16 17 17 17 16 15 16 16 17 18
8 8 9 10 11 11 12 14 15 15 15 15 15 12 12 12 13 13 13 13 12 12 13 12 12 13 13 13 13 14 15 15 15 17 18 18 17 16 13 14 17 18
8 7 9 9 10 11 12 14 14 14 14 13 12 13 12 12 13 13 14 14 14 12 13 13 13 13 12 12 13 14 13 15 17 18 19 18 17 18 17 15 17 17
7 7 8 8 9 10 12 12 12 13 13 12 14 14 12 14 14 12 13 14 13 14 13 14 14 14 13 12 13 14 14 11 13 18 19 19 17 18 17 13 15 17
7 7 7 8 9 10 11 12 11 12 11 12 13 13 12 13 13 13 14 13 14 14 14 14 15 14 13 13 14 14 14 15 16 15 19 18 18 19 17 17 17 17
7 7 8 8 9 9 10 11 10 10 10 12 13 12 13 12 12 13 13 13 14 14 14 14 14 13 13 13 14 14 14 15 15 16 18 18 18 17 17 16 17 17
8 7 7 8 9 8 10 10 9 9 9 11 11 12 12 12 12 11 13 13 13 14 13 14 14 13 14 14 13 13 14 14 14 16 18 19 18 17 15 16 16 17
8 7 7 8 9 9 10 9 8 8 9 9 10 12 12 12 12 11 10 13 13 13 13 13 13 13 14 13 13 13 13 14 14 16 18 18 18 17 17 16 17 17
8 7 6 8 7 8 8 8 8 8 8 9 9 10 11 11 11 12 11 11 13 13 13 13 13 12 12 12 13 13 13 15 16 17 17 17 17 17 16 16 17 15
6 6 6 7 7 7 7 8 8 7 8 8 8 9 10 10 11 11 10 9 11 11 12 12 13 12 12 12 13 13 13 16 16 15 16 17 17 17 15 13 12 10
5 5 5 6 6 7 7 7 7 7 7 6 6 7 7 8 9 9 9 10 9 9 10 11 12 14 13 13 14 15 15 16 16 15 15 16 15 16 14 13 12 11
5 4 4 5 6 6 6 6 6 6 6 6 6 6 7 7 7 8 9 9 10 11 11 10 10 10 8 11 10 11 14 13 13 14 13 13 12 12 11 11 12 11
5 5 3 5 6 7 7 7 8 7 7 7 8 8 8 7 7 7 8 8 8 8 8 8 9 8 6 7 10 12 11 11 13 14 12 10 10 11 11 10 10 11
4 4 4 5 4 5 6 7 7 7 6 6 6 7 7 6 6 7 7 7 6 7 8 7 7 6 8 8 10 11 12 11 10 11 9 9 9 10 10 9 10 10
4 4 5 5 4 4 5 6 7 7 7 6 6 5 5 5 6 6 6 6 7 8 8 8 7 8 11 11 11 11 12 11 8 9 9 8 7 8 8 8 8 8
4 4 4 4 4 4 5 6 6 7 7 6 5 4 4 5 5 6 6 6 6 6 6 6 3 8 7 7 7 8 9 8 7 8 9 8 7 7 6 7 8 8
3 4 5 5 4 4 6 6 6 6 6 5 4 4 4 4 4 4 4 5 5 4 4 3 3 7 7 7 7 5 5 5 5 7 7 7 7 7 7 8 8 8
3 4 4 4 4 3 4 6 5 5 6 5 3 4 3 3 2 1 1 2 2 3 2 1 2 8 7 7 6 6 5 1 2 3 4 4 4 4 4 3 3 3
3 3 4 4 3 3 3 5 5 5 4 4 4 4 3 2 0 0 1 1 2 3 2 1 2 7 8 7 7 7 3 2 1 0 1 2 1 2 3 4 5 4
3 3 4 4 3 3 4 4 4 4 4 5 4 5 3 3 3 2 3 4 4 4 4 2 2 5 7 6 6 6 4 0 0 1 1 2 2 2 3 4 5 8
2 3 3 3 3 3 4 4 4 3 3 4 4 4 4 4 4 3 3 4 4 4 5 3 3 4 6 6 6 6 3 1 1 2 2 1 1 0 2 2 3 5
1 2 2 3 3 3 3 3 2 2 3 3 3 3 4 4 4 3 4 4 4 5 5 6 5 6 7 7 6 6 6 2 2 2 2 2 1 1 0 1 3 3
Wind_Direction
233 233 236 237 239 240 242 241 241 240 239 237 236 236 229 227 211 211 215 217 218 220 218 220 220 219 220 223 225 229 240 241 241 241 238 236 234 229 234 234 234 235
235 238 241 244 248 244 242 241 245 244 246 245 245 244 241 232 216 207 215 217 216 219 219 219 218 217 216 219 219 229 227 237 241 241 240 236 235 233 234 234 237 236
243 244 245 246 248 251 250 248 247 247 248 247 248 245 243 232 222 211 216 218 222 221 218 219 220 220 220 222 220 221 220 231 240 240 240 239 238 236 237 235 237 235
248 246 249 250 250 252 252 253 250 248 247 246 243 243 242 238 225 229 224 216 223 225 221 218 218 220 221 221 220 227 228 235 240 242 243 242 238 237 238 237 238 237
259 256 252 254 254 254 256 253 252 250 249 248 249 243 242 240 241 239 233 227 221 226 223 220 218 220 221 221 226 234 230 237 237 239 242 243 239 234 237 237 237 237
261 258 259 259 258 259 256 254 254 253 252 250 248 247 245 244 243 239 233 230 225 223 224 222 220 218 217 218 220 226 232 232 237 238 240 240 239 236 234 233 236 238
266 267 264 262 263 259 258 258 258 257 255 254 257 250 246 242 240 238 237 234 231 226 223 222 221 218 213 215 219 223 221 225 235 239 239 239 239 240 235 233 235 238
272 272 269 266 264 262 258 258 257 256 256 257 252 251 245 245 241 238 237 237 235 232 226 223 222 221 215 215 220 222 221 219 225 236 239 241 239 240 236 233 236 238
274 268 267 267 265 263 259 258 258 259 257 256 255 255 250 244 242 238 234 229 232 232 229 226 223 222 220 217 220 221 223 228 230 227 238 238 238 238 236 234 236 237
271 268 269 268 266 263 261 261 261 263 263 259 259 259 256 252 246 242 239 236 233 230 227 228 225 222 222 221 221 221 223 223 222 229 236 239 240 239 236 232 233 236
276 272 269 269 268 270 268 268 267 267 266 264 266 263 260 259 255 245 241 241 239 236 233 230 227 223 222 222 222 221 223 225 225 232 239 240 240 239 234 232 233 235
271 271 269 272 274 276 276 275 273 269 269 269 264 263 261 257 253 250 240 242 245 243 239 237 232 228 227 226 224 223 224 227 228 236 240 241 241 239 237 234 235 236
268 269 274 277 277 278 282 282 277 275 272 270 269 266 266 261 255 250 246 242 244 244 241 238 237 232 230 228 226 227 229 238 239 239 240 242 242 239 237 236 236 235
262 276 282 281 282 283 281 280 281 278 274 276 276 273 269 265 263 259 254 245 246 245 246 246 245 243 238 236 237 237 240 242 241 238 238 240 242 241 237 233 231 224
286 288 290 290 287 286 283 281 281 282 283 281 278 277 274 272 273 270 264 257 250 245 249 251 250 250 248 245 243 243 242 243 243 241 237 239 239 243 239 235 234 234
287 279 283 293 293 288 290 295 296 299 300 299 295 292 292 293 288 279 273 266 262 257 252 247 246 248 248 246 242 242 243 244 244 244 240 236 234 237 238 234 234 235
277 274 276 273 275 284 282 285 288 289 291 293 294 293 291 291 291 288 280 273 267 265 258 249 247 251 264 250 243 242 248 250 248 247 240 234 236 235 239 236 236 234
269 274 269 264 260 263 274 282 284 281 277 276 282 288 288 285 280 271 275 277 275 265 259 259 257 265 272 261 248 244 239 245 251 252 249 243 236 236 239 238 237 237
269 266 269 271 272 279 285 288 285 281 279 278 275 281 291 281 270 267 260 256 255 261 262 260 258 249 249 249 249 246 243 240 250 253 257 256 250 244 242 239 240 241
281 281 280 281 288 293 298 294 290 287 288 282 283 283 269 270 274 277 279 270 262 254 258 259 274 358 347 321 297 279 267 256 252 254 255 259 259 257 251 246 240 242
291 292 295 300 302 304 304 298 295 297 295 288 281 277 275 267 275 290 288 284 285 277 269 297 44 360 14 12 14 358 321 264 255 255 254 255 254 253 255 251 252 248
288 290 289 293 301 305 304 303 306 304 300 308 306 293 274 249 232 188 314 342 325 312 253 122 38 12 1 9 2 1 347 344 276 254 265 275 277 293 307 339 354 342
303 297 295 298 306 308 310 317 320 321 320 324 304 296 303 311 123 58 31 16 10 17 39 87 31 7 3 2 5 355 352 31 36 110 244 248 332 13 40 42 37 30
323 318 314 316 321 328 323 323 324 321 328 335 325 316 307 331 331 10 29 24 20 21 359 360 6 1 356 1 4 7 351 4 20 115 89 66 61 43 46 53 44 41
341 341 336 336 342 344 333 323 329 336 334 332 340 336 341 345 348 355 16 22 23 22 9 14 9 355 351 3 6 5 346 262 228 195 156 142 111 19 47 57 53 61
17 12 14 7 360 357 352 339 331 341 8 19 17 19 355 351 357 21 31 32 28 31 32 27 24 22 10 2 9 8 0 329 286 235 219 177 113 53 25 45 50 50